Sioux Falls, SD

9:34 AM CST on December 09, 2019 (GMT -0600)
Foss

Weather History for KFSD - August, 2019

Change the Weather History Date:

Wednesday, August 14, 2019

  Actual Average Record
Temperature  
Mean Temperature 68 °F 71 °F  
Max Temperature 78 °F 82 °F 99 °F (1970)
Min Temperature 58 °F 60 °F 43 °F (2004)
Degree Days  
Heating Degree Days 0 1  
Month to date heating degree days 0 1  
Since 1 June heating degree days 20 60  
Since 1 July heating degree days 0 9  
Cooling Degree Days 3 7  
Month to date cooling degree days 122 104  
Year to date cooling degree days 650 531  
Since 1 June cooling degree days 635 495  
Growing Degree Days 18 (Base 50)    
Moisture  
Dew Point 58 °F    
Average Humidity 74    
Maximum Humidity 93    
Minimum Humidity 54    
Precipitation  
Precipitation 0.00 in 0.10 in 1.62 in (1905)
Month to date precipitation 0.41 1.41  
Year to date precipitation 27.60 17.75  
Snow  
Snow 0.00 in 0.00 in 0.00 in ()
Month to date snowfall 0.0 0.0  
Since 1 June snowfall T 0.0  
Since 1 July snowfall T 0.0  
Snow Depth 0.00 in    
Sea Level Pressure  
Sea Level Pressure 30.09 in    
Wind  
Wind Speed 8 mph (NW)    
Max Wind Speed 13 mph    
Max Gust Speed 18 mph    
Visibility 10 miles    
Events      
T = Trace of Precipitation, MM = Missing Value Source: NWS Daily Summary

Daily Weather History Graph

Daily Weather History Graph

Search for Another Location

Airport or City:

Astronomy

Aug. 14, 2019 Rise Set
Actual Time 6:30 AM CDT 8:32 PM CDT
Civil Twilight 5:59 AM CDT 9:03 PM CDT
Nautical Twilight 5:20 AM CDT 9:41 PM CDT
Astronomical Twilight 4:38 AM CDT 10:22 PM CDT
Moon 8:29 PM CDT (8/14) 5:25 AM CDT (8/14)
Length of Visible Light 15h 04m
Length of Day
14h 01m
Waxing Gibbous, 99% of the Moon is Illuminated
Aug 14
Waxing Gibbous
Aug 15
Full
Aug 23
Last Quarter
Aug 30
New
Sep 5
First Quarter

Hourly Weather History & Observations

Time (CDT) Temp. Dew Point Humidity Pressure Visibility Wind Dir Wind Speed Gust Speed Precip Events Conditions
12:56 AM 62.1 °F 55.9 °F 80% 30.08 in 10.0 mi WNW 9.2 mph - N/A   Clear
1:56 AM 61.0 °F 55.9 °F 83% 30.07 in 10.0 mi WNW 9.2 mph - N/A   Mostly Cloudy
2:56 AM 59.0 °F 55.9 °F 90% 30.07 in 10.0 mi WNW 8.1 mph - N/A   Clear
3:56 AM 57.9 °F 55.9 °F 93% 30.07 in 10.0 mi WNW 6.9 mph - N/A   Clear
4:56 AM 59.0 °F 57.0 °F 93% 30.08 in 10.0 mi WNW 10.4 mph - N/A   Mostly Cloudy
5:11 AM 60.1 °F 57.0 °F 90% 30.10 in 10.0 mi NW 11.5 mph - N/A   Overcast
5:56 AM 61.0 °F 57.0 °F 87% 30.09 in 10.0 mi NW 8.1 mph - N/A   Overcast
6:56 AM 61.0 °F 57.9 °F 90% 30.10 in 10.0 mi WNW 9.2 mph - N/A   Mostly Cloudy
7:56 AM 62.1 °F 57.9 °F 86% 30.11 in 10.0 mi NW 12.7 mph - N/A   Mostly Cloudy
8:56 AM 64.9 °F 60.1 °F 84% 30.11 in 10.0 mi NW 11.5 mph - N/A   Mostly Cloudy
9:41 AM 68.0 °F 60.1 °F 76% 30.13 in 10.0 mi NNW 12.7 mph - N/A   Mostly Cloudy
9:56 AM 68.0 °F 60.1 °F 76% 30.12 in 10.0 mi NNW 11.5 mph - N/A   Mostly Cloudy
10:56 AM 70.0 °F 60.1 °F 71% 30.13 in 10.0 mi North 11.5 mph - N/A   Mostly Cloudy
11:56 AM 70.0 °F 59.0 °F 68% 30.13 in 10.0 mi NW 11.5 mph 18.4 mph N/A   Mostly Cloudy
12:32 PM 71.1 °F 59.0 °F 66% 30.13 in 10.0 mi NW 10.4 mph - N/A   Mostly Cloudy
12:56 PM 73.0 °F 60.1 °F 64% 30.11 in 10.0 mi NNW 10.4 mph - N/A   Mostly Cloudy
1:56 PM 72.0 °F 60.1 °F 66% 30.09 in 10.0 mi North 6.9 mph - N/A   Mostly Cloudy
2:56 PM 77.0 °F 61.0 °F 58% 30.09 in 10.0 mi WNW 6.9 mph - N/A   Mostly Cloudy
3:56 PM 75.9 °F 60.1 °F 58% 30.09 in 10.0 mi WNW 8.1 mph - N/A   Mostly Cloudy
4:56 PM 77.0 °F 60.1 °F 56% 30.07 in 10.0 mi NW 10.4 mph - N/A   Mostly Cloudy
5:56 PM 75.9 °F 59.0 °F 56% 30.06 in 10.0 mi NW 9.2 mph - N/A   Mostly Cloudy
6:56 PM 75.0 °F 57.9 °F 55% 30.06 in 10.0 mi NW 6.9 mph - N/A   Scattered Clouds
7:56 PM 72.0 °F 57.9 °F 61% 30.06 in 10.0 mi NW 4.6 mph - N/A   Scattered Clouds
8:56 PM 69.1 °F 59.0 °F 70% 30.06 in 10.0 mi NW 6.9 mph - N/A   Partly Cloudy
9:56 PM 66.0 °F 57.9 °F 75% 30.08 in 10.0 mi WNW 3.5 mph - N/A   Mostly Cloudy
10:56 PM 63.0 °F 57.9 °F 84% 30.08 in 10.0 mi West 3.5 mph - N/A   Partly Cloudy
11:56 PM 62.1 °F 57.9 °F 86% 30.08 in 10.0 mi Calm Calm - N/A   Clear